Time,TemperatureF,DewpointF,PressureIn,WindDirection,WindDirectionDegrees,WindSpeedMPH,WindSpeedGustMPH,Humidity,HourlyPrecipIn,Conditions,Clouds,dailyrainin,SoftwareType,DateUTC
2013-01-09 00:00:00,24.9,20.5,27.54,ESE,122,0.0,4.0,83,0.00,,,-99.99,Weather View 32 v60,2013-01-09 05:00:00,
2013-01-09 00:40:00,22.9,18.2,27.52,SSW,207,0.0,3.0,82,0.00,,,-99.99,Weather View 32 v60,2013-01-09 05:40:00,
2013-01-09 01:00:00,22.0,17.1,27.51,South,191,3.0,7.0,81,0.00,,,-99.99,Weather View 32 v60,2013-01-09 06:00:00,
2013-01-09 01:40:00,23.2,18.5,27.51,NNE,23,0.0,7.0,82,0.00,,,-99.99,Weather View 32 v60,2013-01-09 06:40:00,
2013-01-09 02:00:00,23.5,18.8,27.51,NNE,23,0.0,4.0,82,0.00,,,-99.99,Weather View 32 v60,2013-01-09 07:00:00,
2013-01-09 02:40:00,22.9,-64.0,27.52,NNE,22,0.0,3.0,1,0.00,,,-99.99,Weather View 32 v60,2013-01-09 07:40:00,
2013-01-09 03:00:00,22.4,18.3,27.52,NNE,22,0.0,3.0,84,0.00,,,-99.99,Weather View 32 v60,2013-01-09 08:00:00,
2013-01-09 03:40:00,22.4,18.6,27.51,North,4,0.0,3.0,85,0.00,,,-99.99,Weather View 32 v60,2013-01-09 08:40:00,
2013-01-09 04:00:00,22.4,18.3,27.51,North,2,0.0,3.0,84,0.00,,,-99.99,Weather View 32 v60,2013-01-09 09:00:00,
2013-01-09 04:40:00,24.7,20.0,27.51,NNW,336,1.0,4.0,82,0.00,,,-99.99,Weather View 32 v60,2013-01-09 09:40:00,
2013-01-09 05:00:00,25.7,20.1,27.51,NW,324,3.0,4.0,79,0.00,,,-99.99,Weather View 32 v60,2013-01-09 10:00:00,
2013-01-09 05:40:00,30.0,22.1,27.51,NW,305,2.0,6.0,72,0.00,,,-99.99,Weather View 32 v60,2013-01-09 10:40:00,
2013-01-09 06:00:00,31.3,22.3,27.51,WNW,303,1.0,6.0,69,0.00,,,-99.99,Weather View 32 v60,2013-01-09 11:00:00,
2013-01-09 06:40:00,32.0,24.3,27.52,WNW,303,2.0,6.0,73,0.00,,,-99.99,Weather View 32 v60,2013-01-09 11:40:00,
2013-01-09 07:00:00,33.8,25.7,27.53,West,270,4.0,7.0,72,0.00,,,-99.99,Weather View 32 v60,2013-01-09 12:00:00,
2013-01-09 07:20:00,34.6,26.2,27.52,West,271,1.0,9.0,71,0.00,,,-99.99,Weather View 32 v60,2013-01-09 12:20:00,
2013-01-09 07:40:00,37.1,28.9,27.53,West,277,5.0,9.0,72,0.00,,,-99.99,Weather View 32 v60,2013-01-09 12:40:00,
2013-01-09 08:00:00,40.0,31.0,27.53,WSW,253,6.0,11.0,70,0.00,,,-99.99,Weather View 32 v60,2013-01-09 13:00:00,
2013-01-09 08:40:00,42.9,33.1,27.54,West,259,4.0,12.0,68,0.00,,,-99.99,Weather View 32 v60,2013-01-09 13:40:00,
2013-01-09 09:00:00,44.3,33.6,27.54,WSW,247,3.0,13.0,66,0.00,,,-99.99,Weather View 32 v60,2013-01-09 14:00:00,
2013-01-09 09:40:00,45.6,34.5,27.54,West,277,7.0,19.0,65,0.00,,,-99.99,Weather View 32 v60,2013-01-09 14:40:00,
2013-01-09 10:00:00,45.8,34.7,27.54,WNW,291,9.0,19.0,65,0.00,,,-99.99,Weather View 32 v60,2013-01-09 15:00:00,
2013-01-09 10:40:00,47.0,35.0,27.52,WNW,300,9.0,19.0,63,0.00,,,-99.99,Weather View 32 v60,2013-01-09 15:40:00,
2013-01-09 11:00:00,46.1,35.0,27.52,NW,313,6.0,19.0,65,0.00,,,-99.99,Weather View 32 v60,2013-01-09 16:00:00,
2013-01-09 11:40:00,43.4,36.3,27.51,WNW,290,6.0,15.0,76,0.00,,,-99.99,Weather View 32 v60,2013-01-09 16:40:00,
2013-01-09 12:00:00,41.9,38.9,27.49,SW,224,5.0,16.0,89,0.01,,,-99.99,Weather View 32 v60,2013-01-09 17:00:00,
2013-01-09 12:40:00,43.6,40.9,27.46,WSW,241,13.0,24.0,90,0.01,,,-99.99,Weather View 32 v60,2013-01-09 17:40:00,
2013-01-09 13:00:00,43.3,40.8,27.47,WNW,283,11.0,24.0,91,0.00,,,-99.99,Weather View 32 v60,2013-01-09 18:00:00,
2013-01-09 13:40:00,42.1,40.8,27.47,WNW,285,12.0,27.0,95,0.00,,,-99.99,Weather View 32 v60,2013-01-09 18:40:00,
2013-01-09 14:00:00,41.6,40.5,27.48,West,268,8.0,27.0,96,0.01,,,-99.99,Weather View 32 v60,2013-01-09 19:00:00,
2013-01-09 14:40:00,41.5,40.4,27.48,WNW,302,13.0,24.0,96,0.01,,,-99.99,Weather View 32 v60,2013-01-09 19:40:00,
2013-01-09 15:00:00,41.3,40.2,27.49,WNW,287,5.0,24.0,96,0.00,,,-99.99,Weather View 32 v60,2013-01-09 20:00:00,
2013-01-09 15:40:00,40.6,39.5,27.50,WNW,294,8.0,23.0,96,0.00,,,-99.99,Weather View 32 v60,2013-01-09 20:40:00,
2013-01-09 16:00:00,40.0,39.0,27.50,WNW,284,7.0,23.0,96,0.00,,,-99.99,Weather View 32 v60,2013-01-09 21:00:00,
2013-01-09 16:40:00,39.3,38.3,27.53,WNW,289,8.0,18.0,96,0.00,,,-99.99,Weather View 32 v60,2013-01-09 21:40:00,
2013-01-09 17:00:00,39.0,38.0,27.55,NW,306,8.0,17.0,96,0.00,,,-99.99,Weather View 32 v60,2013-01-09 22:00:00,
2013-01-09 17:40:00,38.3,37.3,27.57,West,280,7.0,17.0,96,0.00,,,-99.99,Weather View 32 v60,2013-01-09 22:40:00,
2013-01-09 18:00:00,38.3,37.3,27.58,NW,306,3.0,17.0,96,0.00,,,-99.99,Weather View 32 v60,2013-01-09 23:00:00,
2013-01-09 18:40:00,38.3,37.3,27.59,West,274,3.0,16.0,96,0.00,,,-99.99,Weather View 32 v60,2013-01-09 23:40:00,
2013-01-09 19:00:00,38.1,37.1,27.60,WNW,291,5.0,16.0,96,0.00,,,-99.99,Weather View 32 v60,2013-01-10 00:00:00,
2013-01-09 19:40:00,38.4,-17.9,27.61,WNW,303,6.0,18.0,8,0.00,,,-99.99,Weather View 32 v60,2013-01-10 00:40:00,
2013-01-09 20:00:00,38.5,37.2,27.62,West,271,6.0,18.0,95,0.00,,,-99.99,Weather View 32 v60,2013-01-10 01:00:00,
2013-01-09 20:40:00,38.0,36.7,27.62,WNW,298,10.0,18.0,95,0.00,,,-99.99,Weather View 32 v60,2013-01-10 01:40:00,
2013-01-09 21:00:00,37.8,36.5,27.62,WNW,298,6.0,17.0,95,0.00,,,-99.99,Weather View 32 v60,2013-01-10 02:00:00,
2013-01-09 21:40:00,37.3,35.7,27.63,West,280,9.0,18.0,94,0.00,,,-99.99,Weather View 32 v60,2013-01-10 02:40:00,
2013-01-09 22:00:00,36.8,35.2,27.63,NW,308,8.0,21.0,94,0.00,,,-99.99,Weather View 32 v60,2013-01-10 03:00:00,
2013-01-09 22:40:00,36.3,34.2,27.63,WNW,302,12.0,21.0,92,0.00,,,-99.99,Weather View 32 v60,2013-01-10 03:40:00,
2013-01-09 23:00:00,36.0,34.2,27.64,WNW,301,16.0,23.0,93,0.00,,,-99.99,Weather View 32 v60,2013-01-10 04:00:00,
2013-01-09 23:40:00,35.5,31.7,27.65,WNW,290,10.0,23.0,86,0.00,,,-99.99,Weather View 32 v60,2013-01-10 04:40:00,